Location: Bussy-Saint-Georges
(48.8410°N, 2.7017°E)
Time: 20:35:44
(UTC+00:00)

SMAP - Pass Details

Date: 18 October 2021
Orbit: 681 x 683 km, 98.1° (Epoch: 06 December)

Event Time Altitude Azimuth Distance (km) Brightness Sun altitude
Rises 17:35:57 0° 181° (S) 3,034 6.5 -7.7°
Reaches altitude 10° 17:38:16 10° 188° (S) 2,123 5.8 -8.1°
Maximum altitude 17:42:43 46° 261° (W) 925 4.4 -8.8°
Drops below altitude 10° 17:47:14 10° 335° (NNW) 2,140 5.9 -9.6°
Sets 17:49:34 0° 342° (NNW) 3,061 6.6 -9.9°
